Location: Newark
(45.4422°N, 16.2769°E)
Time: 08:16:33
(UTC+00:00)

Vanguard 2 - Pass Details

Date: 14 December 2019
Orbit: 553 x 2938 km, 32.9° (Epoch: 18 January)

Event Time Altitude Azimuth Distance (km) Brightness Sun altitude
Rises 02:43:12 0° 264° (W) 6,245 - -38.1°
Reaches altitude 10° 02:47:12 10° 260° (W) 5,440 - -37.4°
Exits shadow 02:58:48 44° 226° (SW) 3,679 10.5 -35.4°
Maximum altitude 03:03:19 50° 192° (SSW) 3,466 10.6 -34.6°
Drops below altitude 10° 03:18:55 10° 124° (SE) 5,269 12.4 -31.9°
Sets 03:22:43 0° 119° (ESE) 6,043 13.0 -31.2°
